Hoquiam, WA

9:02 AM PDT on September 26, 2017 (GMT -0700)
Bowerman

Weather History for KHQM - February, 2013

Change the Weather History Date:

Wednesday, February 20, 2013

  Actual Average Record
Temperature  
Mean Temperature 39 °F 44 °F  
Max Temperature 45 °F 50 °F 58 °F (1958)
Min Temperature 33 °F 38 °F 26 °F (2011)
Degree Days  
Heating Degree Days 26 21  
Month to date heating degree days 430  
Cooling Degree Days 0 0  
Month to date cooling degree days 0  
Year to date cooling degree days 0  
Moisture  
Dew Point 37 °F    
Average Humidity 94    
Maximum Humidity 100    
Minimum Humidity 81    
Precipitation  
Precipitation 0.17 in 0.24 in 2.26 in (1961)
Month to date precipitation 5.28  
Year to date precipitation 15.61  
Sea Level Pressure  
Sea Level Pressure 30.02 in    
Wind  
Wind Speed 5 mph (ENE)    
Max Wind Speed 17 mph    
Max Gust Speed 24 mph    
Visibility 5 miles    
Events Fog , Rain    
T = Trace of Precipitation, MM = Missing Value Source: NWS Daily Summary

Daily Weather History Graph

Daily Weather History Graph

Search for Another Location

Airport or City:

Trip Planner

Search our weather history database for the weather conditions in past years. The results will help you decide how hot, cold, wet, or windy it might be!

Date:

Astronomy

Feb. 20, 2013 Rise Set
Actual Time 7:11 AM PST 5:48 PM PST
Civil Twilight 6:40 AM PST 6:19 PM PST
Nautical Twilight 6:04 AM PST 6:54 PM PST
Astronomical Twilight 5:29 AM PST 7:30 PM PST
Moon 1:03 PM PST (2/20) 3:47 AM PST (2/20)
Length of Visible Light 11h 39m
Length of Day
10h 37m
Waxing Gibbous, 77% of the Moon is Illuminated
Feb 20
Waxing Gibbous
Feb 25
Full
Mar 4
Last Quarter
Mar 11
New
Mar 19
First Quarter

Hourly Weather History & Observations

Time (PST) Temp. Windchill Dew Point Humidity Pressure Visibility Wind Dir Wind Speed Gust Speed Precip Events Conditions
12:19 AM 33.8 °F 30.8 °F 32.0 °F 93% 30.02 in 2.5 mi ENE 3.5 mph - N/A   Partly Cloudy
12:22 AM 33.8 °F 30.8 °F 32.0 °F 93% 30.02 in 0.8 mi ENE 3.5 mph - N/A   Mist
12:32 AM 33.8 °F - 33.8 °F 100% 30.02 in 0.2 mi Calm Calm - N/A Fog Fog
12:40 AM 33.8 °F 30.8 °F 33.8 °F 100% 30.02 in 0.2 mi NE 3.5 mph - N/A Fog Fog
12:53 AM 34.0 °F 31.0 °F 34.0 °F 100% 30.03 in 0.2 mi ENE 3.5 mph - N/A Fog Fog
1:02 AM 35.6 °F 32.8 °F 33.8 °F 93% 30.03 in 0.2 mi ENE 3.5 mph - N/A Fog Fog
1:53 AM 35.1 °F 32.2 °F 35.1 °F 100% 30.05 in 0.2 mi NE 3.5 mph - N/A Fog Fog
2:29 AM 35.6 °F 31.7 °F 35.6 °F 100% 30.04 in 0.2 mi NE 4.6 mph - N/A Fog Fog
2:49 AM 35.6 °F - 35.6 °F 100% 30.04 in 0.2 mi Calm Calm - N/A Fog Fog
2:53 AM 35.1 °F - 35.1 °F 100% 30.05 in 0.2 mi Calm Calm - N/A Fog Fog
3:36 AM 35.6 °F 31.7 °F 33.8 °F 93% 30.04 in 0.2 mi NE 4.6 mph - N/A Fog Fog
3:53 AM 34.0 °F 29.8 °F 34.0 °F 100% 30.05 in 0.2 mi NE 4.6 mph - N/A Fog Fog
4:53 AM 33.8 °F - 33.8 °F 100% 30.04 in 0.2 mi Calm Calm - N/A Fog Fog
5:05 AM 33.8 °F - 33.8 °F 100% 30.04 in 0.5 mi Calm Calm - N/A Fog Fog
5:53 AM 33.1 °F - 33.1 °F 100% 30.06 in 0.5 mi Calm Calm - N/A Fog Fog
6:04 AM 33.8 °F - 33.8 °F 100% 30.05 in 1.2 mi Calm Calm - N/A   Overcast
6:17 AM 33.8 °F 29.6 °F 33.8 °F 100% 30.05 in 2.5 mi NE 4.6 mph - N/A   Overcast
6:25 AM 33.8 °F 30.8 °F 33.8 °F 100% 30.05 in 4.0 mi NE 3.5 mph - N/A   Overcast
6:53 AM 34.0 °F 28.8 °F 33.1 °F 96% 30.05 in 4.0 mi NE 5.8 mph - N/A   Overcast
7:01 AM 33.8 °F 28.6 °F 33.8 °F 100% 30.04 in 5.0 mi NE 5.8 mph - N/A   Overcast
7:10 AM 33.8 °F 30.8 °F 33.8 °F 100% 30.04 in 5.0 mi NE 3.5 mph - N/A   Overcast
7:53 AM 35.1 °F 30.1 °F 34.0 °F 96% 30.05 in 2.5 mi NE 5.8 mph - 0.04 in Rain Light Rain
8:14 AM 35.6 °F 30.7 °F 35.6 °F 100% 30.03 in 3.0 mi NE 5.8 mph - 0.00 in   Overcast
8:22 AM 35.6 °F 31.7 °F 35.6 °F 100% 30.03 in 4.0 mi NE 4.6 mph - N/A   Overcast
8:53 AM 37.9 °F 35.5 °F 37.0 °F 97% 30.05 in 4.0 mi NE 3.5 mph - 0.00 in   Overcast
9:53 AM 39.9 °F 37.8 °F 39.0 °F 97% 30.05 in 7.0 mi ENE 3.5 mph - 0.00 in   Overcast
10:53 AM 43.0 °F 39.5 °F 39.9 °F 89% 30.05 in 5.0 mi SE 5.8 mph - 0.02 in Rain Light Rain
11:11 AM 44.6 °F 40.2 °F 41.0 °F 87% 30.03 in 8.0 mi SSE 8.1 mph - 0.01 in Rain Light Rain
11:18 AM 44.6 °F 39.7 °F 41.0 °F 87% 30.03 in 10.0 mi SSE 9.2 mph - 0.01 in Rain Light Rain
11:53 AM 43.0 °F 41.3 °F 41.0 °F 93% 30.03 in 8.0 mi SSE 3.5 mph - 0.02 in Rain Light Rain
12:53 PM 45.0 °F 40.6 °F 41.0 °F 86% 30.01 in 8.0 mi SSE 8.1 mph - 0.00 in Rain Light Rain
1:53 PM 44.1 °F 38.6 °F 42.1 °F 93% 29.98 in 9.0 mi South 10.4 mph - 0.05 in   Overcast
2:42 PM 44.6 °F 40.2 °F 39.2 °F 81% 29.97 in 10.0 mi South 8.1 mph - 0.02 in   Overcast
2:53 PM 44.1 °F 40.8 °F 39.9 °F 85% 29.98 in 10.0 mi SSE 5.8 mph - 0.02 in   Overcast
3:53 PM 44.1 °F 36.5 °F 39.0 °F 82% 29.98 in 10.0 mi South 17.3 mph 24.2 mph 0.01 in Rain Light Rain
4:09 PM 42.8 °F 35.8 °F 37.4 °F 81% 29.97 in 10.0 mi South 13.8 mph - 0.01 in Rain Light Rain
4:44 PM 42.8 °F 37.5 °F 37.4 °F 81% 29.96 in 10.0 mi SE 9.2 mph - 0.01 in   Overcast
4:53 PM 42.1 °F 36.1 °F 37.9 °F 85% 29.97 in 10.0 mi SE 10.4 mph - 0.01 in   Overcast
5:53 PM 42.1 °F 36.1 °F 37.9 °F 85% 29.96 in 10.0 mi East 10.4 mph - N/A   Overcast
6:53 PM 41.0 °F 35.2 °F 39.0 °F 93% 29.98 in 10.0 mi ENE 9.2 mph - N/A   Overcast
7:36 PM 41.0 °F 34.3 °F 39.2 °F 93% 29.97 in 8.0 mi ENE 11.5 mph - 0.00 in   Overcast
7:53 PM 39.9 °F 32.9 °F 39.0 °F 97% 29.99 in 10.0 mi ENE 11.5 mph - 0.00 in   Overcast
8:53 PM 41.0 °F 35.2 °F 39.0 °F 93% 29.99 in 7.0 mi ENE 9.2 mph - N/A   Overcast
9:10 PM 41.0 °F 36.4 °F 39.2 °F 93% 29.99 in 9.0 mi ENE 6.9 mph - N/A   Overcast
9:53 PM 39.9 °F 35.8 °F 39.0 °F 97% 30.01 in 10.0 mi NE 5.8 mph - N/A   Overcast
10:04 PM 41.0 °F 38.0 °F 39.2 °F 93% 30.00 in 10.0 mi NNE 4.6 mph - N/A   Overcast
10:26 PM 41.0 °F 38.0 °F 39.2 °F 93% 30.01 in 10.0 mi NNE 4.6 mph - N/A   Overcast
10:53 PM 41.0 °F 37.1 °F 39.0 °F 93% 30.02 in 10.0 mi NNE 5.8 mph - N/A   Overcast
11:53 PM 41.0 °F 38.0 °F 39.0 °F 93% 30.04 in 10.0 mi North 4.6 mph - N/A   Overcast